{"data":{"norad_id":44748,"intl_designator":"2019-074AM","name":"STARLINK-1043","alt_names":[],"object_type":"PAYLOAD","status":"ACTIVE","operator":null,"country":"US","launch_date":"2019-11-11","launch_site_code":"AFETR","launch_vehicle":null,"mission":null,"orbit_class":"UNKNOWN","rcs_meters":null,"size_class":null,"mass_kg":null,"dimensions":null,"purposes":["comms"],"wikipedia_slug":null,"has_3d_model":false,"image_url":null,"decayed_at":null,"tle_current":{"epoch":"2026-05-25T03:10:34.847328Z","epoch_age_seconds":60225,"freshness":"FRESH","line1":"1 44748U 19074AM  26145.13234777  .00029515  00000+0  34552-3 0  9993","line2":"2 44748  53.0485 184.1074 0001122  67.4406 292.6725 15.61326977360551","mean_motion":15.61326977,"eccentricity":0.0001122,"inclination_deg":53.0485,"raan_deg":184.1074,"arg_perigee_deg":67.4406,"mean_anomaly_deg":292.6725,"bstar":0.00034552,"rev_number":36055,"period_min":92.229239692436,"perigee_km":383.0643316688,"apogee_km":384.58171549809,"semimajor_km":6761.9600235834,"source":"CELESTRAK","updated_at":"2026-05-25T13:38:16.373415Z"}}}